[[{"header":{"parameterUnit":"m.s-1","parameterCategory":1,"la1":30.2992,"la2":30.254,"lo1":-89.0895,"lo2":-89.0443,"dy":0.0025,"dx":0.0025,"nx":19,"ny":19,"refTime":"2026-03-20T21:00:00:Z","depth":0,"parameterNumber":2,"parameterNumberName":"U-component_of_WINDS"},"data":[0,0,0,0.0549,0.0551,0.0637,0.0638,0.0741,0.0741,0,0,0,0,0,0,0,0,0,0,0,0.0518,0.0518,0.0549,0.0551,0.0637,0.0638,0.074,0.0741,0,0,0,0,0,0,0,0,0,0,0,0.0518,0.0518,0.0519,0.0552,0.0637,0.0638,0.074,0.0678,0,0,0,0,0,0,0,0,0,0,0.0596,0.0561,0.0518,0.0519,0.0552,0.0637,0.0638,0.0675,0.0682,0.0698,0,0.0709,0,0.0726,0.0748,0.0748,0,0,0,0.0556,0.0555,0.0583,0.0519,0.0553,0.0637,0.06,0.0679,0.0687,0.0707,0.071,0.0715,0.0728,0.0748,0.0749,0.0818,0.0818,0,0,0.0552,0.0531,0.0578,0.0588,0.0572,0.0597,0.0603,0.0684,0.0687,0.0711,0.0717,0.073,0.0749,0.075,0.0818,0.0818,0,0,0,0.0534,0.0527,0.0554,0.0584,0.0599,0.0599,0.0606,0.0684,0.0694,0.0718,0.0731,0.0749,0.0751,0.0818,0.0818,0.0801,0,0,0,0.0532,0.0517,0.0551,0.054,0.0598,0.0643,0.0604,0.0688,0.0698,0.0731,0.0749,0.0751,0.0818,0.0818,0.0801,0.0797,0,0,0,0.0515,0.0515,0.0526,0.0538,0.0574,0.0642,0.0657,0.0691,0.0706,0.0748,0.0752,0.0818,0.0818,0.0801,0.0797,0.0808,0,0,0,0.0491,0.0511,0.0525,0.0553,0.0574,0.063,0.0656,0.07,0.0734,0.075,0.0818,0.0818,0.0802,0.0798,0.0808,0.0814,0.0814,0,0,0.0505,0.0512,0.053,0.0545,0.0593,0.0618,0.0665,0.0717,0.0741,0.0791,0.0793,0.0801,0.0797,0.0808,0.0821,0.0821,0,0,0,0.0528,0.0541,0.0558,0.0588,0.0627,0.0659,0.0706,0.0725,0.0768,0.0762,0.0809,0.0807,0.0814,0.0818,0.0818,0.0825,0.0818,0.0818,0.0818,0.052,0.0547,0.0579,0.0616,0.0645,0.0692,0.0718,0.0752,0.0773,0.0783,0.0799,0.0803,0.0806,0.0806,0.0814,0.0803,0.0803,0.0803,0.0803,0.0544,0.0566,0.0591,0.063,0.0659,0.0693,0.0738,0.0752,0.0788,0.0794,0.0802,0.0806,0.0805,0.0813,0.0802,0.0803,0.0803,0.0803,0.0803,0.0542,0.0558,0.0578,0.0624,0.0656,0.0693,0.0726,0.0752,0.0777,0.0784,0.0803,0.0803,0.0807,0.0791,0.0791,0.0791,0.0791,0.0791,0.0791,0.0532,0.0556,0.058,0.062,0.0642,0.0674,0.072,0.0743,0.0775,0.0791,0.0791,0.0811,0.0799,0.0796,0.0791,0.0791,0.0791,0.0791,0.0791,0.0547,0.0547,0.0583,0.0605,0.0654,0.0683,0.0715,0.0759,0.0781,0.0796,0.0814,0.0801,0.0811,0.0811,0.0809,0.0808,0.0808,0.0808,0.0808,0.0545,0.0552,0.0594,0.0626,0.0661,0.0693,0.0733,0.0768,0.0805,0.0821,0.0824,0.0823,0.0822,0.0833,0.0832,0.083,0.0835,0.0835,0.0835,0.0555,0.0566,0.0595,0.0629,0.0669,0.0703,0.0742,0.0779,0.0821,0.0837,0.0833,0.0832,0.083,0.0828,0.0845,0.0844,0.0841,0,0]},{"header":{"parameterUnit":"m.s-1","parameterCategory":1,"la1":30.2992,"la2":30.254,"lo1":-89.0895,"lo2":-89.0443,"dy":0.0025,"dx":0.0025,"nx":19,"ny":19,"refTime":"2026-03-20T21:00:00:Z","depth":0,"parameterNumber":3,"parameterNumberName":"V-component_of_WINDS"},"data":[0,0,0,2.8924,2.8923,2.8851,2.8851,2.8747,2.8746,0,0,0,0,0,0,0,0,0,0,0,2.8941,2.894,2.8924,2.8922,2.8851,2.8851,2.8747,2.8746,0,0,0,0,0,0,0,0,0,0,0,2.8941,2.894,2.8939,2.8922,2.8852,2.8851,2.8748,2.8805,0,0,0,0,0,0,0,0,0,0,2.8876,2.8887,2.894,2.8939,2.8922,2.8852,2.8851,2.8808,2.8801,2.8775,0,2.8753,0,2.8748,2.8739,2.8738,0,0,0,2.8925,2.8893,2.8878,2.8939,2.8921,2.8852,2.8884,2.8804,2.8797,2.8766,2.8752,2.8748,2.8746,2.8738,2.8737,2.8583,2.8582,0,0,2.8929,2.8924,2.8883,2.8873,2.8887,2.8886,2.8882,2.88,2.8783,2.8751,2.8746,2.8745,2.8737,2.8736,2.8584,2.8583,0,0,0,2.8938,2.8927,2.8915,2.8877,2.8866,2.8884,2.8879,2.8786,2.8783,2.8745,2.8744,2.8737,2.8735,2.8585,2.8583,2.8538,0,0,0,2.8941,2.8933,2.8916,2.8913,2.8867,2.8826,2.8867,2.8788,2.8779,2.8744,2.8737,2.8734,2.8586,2.8584,2.8541,2.8515,0,0,0,2.8947,2.8933,2.8922,2.8913,2.8883,2.8827,2.8819,2.8787,2.8778,2.8738,2.8734,2.8586,2.8584,2.8544,2.852,2.8472,0,0,0,2.8951,2.8881,2.8921,2.8843,2.8883,2.8801,2.882,2.8758,2.8719,2.8736,2.8585,2.8583,2.8545,2.8523,2.8475,2.8429,2.8411,0,0,2.8861,2.887,2.8825,2.8859,2.8769,2.8813,2.8715,2.8681,2.868,2.8614,2.8611,2.854,2.852,2.8473,2.8312,2.8297,0,0,0,2.8795,2.8762,2.8739,2.8702,2.8677,2.8652,2.8635,2.8622,2.8567,2.8647,2.8511,2.8499,2.8471,2.8449,2.8437,2.8412,2.8574,2.8574,2.8574,2.8658,2.8663,2.8588,2.8583,2.8548,2.8531,2.8501,2.848,2.8494,2.8462,2.8441,2.8344,2.8318,2.8308,2.8282,2.842,2.842,2.842,2.8419,2.8525,2.8477,2.85,2.8434,2.8438,2.8382,2.8362,2.8374,2.8319,2.836,2.8335,2.8376,2.8292,2.8269,2.8416,2.8417,2.8417,2.8417,2.8418,2.8433,2.8412,2.84,2.8348,2.8306,2.8304,2.8251,2.8257,2.8262,2.8238,2.8215,2.8216,2.8215,2.8227,2.8227,2.8227,2.8226,2.8226,2.8226,2.8342,2.8331,2.8288,2.8256,2.8233,2.8203,2.8186,2.8162,2.8137,2.8145,2.8145,2.8159,2.8285,2.8315,2.8221,2.8222,2.8222,2.8223,2.8223,2.82,2.8234,2.8166,2.8144,2.8106,2.8063,2.8073,2.8024,2.8005,2.7978,2.8,2.8093,2.8102,2.8112,2.8136,2.8001,2.8001,2.8001,2.8001,2.8121,2.8128,2.806,2.8023,2.7987,2.799,2.791,2.7895,2.7885,2.7873,2.7894,2.7928,2.7938,2.7941,2.7954,2.7977,2.7805,2.7805,2.7805,2.8032,2.8036,2.7968,2.7962,2.7933,2.7907,2.7832,2.7785,2.7781,2.7797,2.7863,2.7871,2.7926,2.7944,2.7958,2.798,2.8021,0,0]}]]